Location: Highland Station (historical)
(44.9576°N, 123.0284°W)
Time: 19:01:54
(UTC+00:00)

N. Korean satellite - Visible Passes

Search period start: 28 September 2020 00:00
Search period end: 08 October 2020 00:00
Orbit: 455 x 503 km, 97.2° (Epoch: 28 September)

Date Brightness Start Highest point End Pass type
(mag) Time Alt. Az. Time Alt. Az. Time Alt. Az.
28 Sep 8.0 13:27:39 10° NNE 13:31:08 43° E 13:34:32 10° S visible
29 Sep 9.5 13:02:09 10° NE 13:04:57 21° E 13:07:43 10° SE visible
30 Sep 10.3 12:37:55 10° ENE 12:38:41 10° E 12:39:25 10° E visible
02 Oct 8.7 13:17:00 10° NNE 13:20:15 31° E 13:23:25 10° SSE visible
03 Oct 9.8 12:51:46 10° NE 12:54:01 16° E 12:56:14 10° SE visible
05 Oct 7.7 13:31:58 10° NNE 13:35:27 49° E 13:38:51 10° S visible
06 Oct 9.2 13:06:21 10° NE 13:09:16 23° E 13:12:07 10° SSE visible
07 Oct 10.1 12:41:40 10° ENE 12:42:58 12° E 12:44:15 10° ESE visible
